Location: Burland Observatory
(39.4088°N, 105.4217°W)
Time: 03:55:18
(UTC-07:00)

S-56A Canister/Altair - Pass Details

Date: 11 December 2019
Orbit: 634 x 2498 km, 38.9° (Epoch: 18 January)

Event Time Altitude Azimuth Distance (km) Brightness Sun altitude
Rises 06:07:14 0° 167° (SSE) 5,093 12.2 -12.1°
Reaches altitude 10° 06:14:37 10° 135° (SE) 4,588 12.6 -10.8°
Maximum altitude 06:17:31 11° 122° (ESE) 4,657 13.0 -10.2°
Drops below altitude 10° 06:20:34 10° 109° (ESE) 4,881 13.3 -9.7°
Sets 06:29:26 0° 80° (E) 6,142 13.2 -8.1°
